User: anonymous   Login
Location: Mainz-Finthen
(49.9906°N, 8.1713°E)
Time: 22:08:07
(UTC+00:00)
Language:

UKube-1 - Orbit

View from above orbital plane
View from above orbital plane
View from above satellite
View from above satellite

Ground track
Ground track

The orbit data is extracted from the following two-line orbital elements,

1 40074U 14037F   21339.50028044  .00000858  00000-0  10829-3 0  9995
2 40074  98.4047 204.7976 0003710 181.6330 178.4852 14.84754728401287
Epoch (UTC): 05 December 2021 12:00:24
Eccentricity: 0.0003710
inclination: 98.4047°
perigee height: 612 km
apogee height: 617 km
right ascension of ascending node: 204.7976°
argument of perigee: 181.6330°
revolutions per day: 14.84754728
mean anomaly at epoch: 178.4852°
orbit number at epoch: 40128

The dashed part of the orbit path shows where the satellite is in the earth's shadow,  

DLR